This is the latest recevied weather packets stored in our database for station/object N8DMH-13. If no packets are shown the sender has not sent any weather packets the latest 10 day(s).
| Time | Temp. | Humidity | Pressure | Rain* | Wind** | Luminosity | Snow |
|---|---|---|---|---|---|---|---|
| 1778314544 | 11.11° C | 53% | 1000.1 hPa | 0 mm | - | - | - |
| 1778314244 | 11.11° C | 51% | 1000.3 hPa | 0 mm | - | - | - |
| 1778313283 | 11.67° C | 45% | 1000.3 hPa | 0 mm | - | - | - |
| 1778312983 | 11.67° C | 44% | 1000.4 hPa | 0 mm | - | - | - |
| 1778312654 | 11.67° C | 42% | 1000.5 hPa | 0 mm | - | - | - |
| 1778312353 | 11.67° C | 41% | 1000.5 hPa | 0 mm | - | - | - |
| 1778312023 | 11.67° C | 40% | 1000.7 hPa | 0 mm | - | - | - |
| 1778311693 | 11.67° C | 40% | 1000.9 hPa | 0 mm | - | - | - |
| 1778311393 | 12.22° C | 39% | 1001 hPa | 0 mm | - | - | - |
| 1778311063 | 12.22° C | 39% | 1001.3 hPa | 0 mm | - | - | - |
| 1778310732 | 12.22° C | 39% | 1001.3 hPa | 0 mm | - | - | - |
| 1778310432 | 12.22° C | 38% | 1001.5 hPa | 0 mm | - | - | - |
| 1778308542 | 12.22° C | 41% | 1002 hPa | 0 mm | - | - | - |
| 1778308242 | 12.22° C | 41% | 1002.2 hPa | 0 mm | - | - | - |
| 1778307942 | 12.22° C | 41% | 1002.4 hPa | 0 mm | - | - | - |
| 1778307612 | 12.22° C | 41% | 1002.4 hPa | 0 mm | - | - | - |
| 1778307311 | 12.22° C | 41% | 1002.4 hPa | 0 mm | - | - | - |
| 1778306981 | 12.22° C | 41% | 1002.5 hPa | 0 mm | - | - | - |
| 1778306681 | 12.22° C | 40% | 1002.4 hPa | 0 mm | - | - | - |
| 1778306351 | 12.22° C | 39% | 1002.4 hPa | 0 mm | - | - | - |
| 1778306051 | 12.22° C | 39% | 1002.3 hPa | 0 mm | - | - | - |
| 1778305751 | 12.78° C | 39% | 1002.3 hPa | 0 mm | - | - | - |
| 1778305151 | 12.22° C | 39% | 1002.5 hPa | 0 mm | - | - | - |
| 1778304821 | 12.22° C | 40% | 1002.5 hPa | 0 mm | - | - | - |
| 1778304520 | 12.22° C | 40% | 1002.6 hPa | 0 mm | - | - | - |
* Rain latest hour (hover to see other rain measurements)
** Current wind speed in m/s (hover to see current wind gust speed)